This demonstration page uses our WeatherBlox Daily Observations layout. Learn more.

Hourly Observations for August 5, 2016

Temp ( °F °C ) Dew Point ( °F °C ) Humidity (%) Winds ( mph kmh ) Pressure ( in mb ) Visibility ( mi km ) Precip ( " mm )
12:15 am 00:15 Clear 65 18.6 58 14.5 77 77 N 6 9 29.97 1015 10 16.09344 0 0
12:35 am 00:35 Partly Cloudy 65 18.5 58 14.6 78 78 NNE 5 7 29.97 1015 10 16.09344 0 0
12:55 am 00:55 Partly Cloudy 64 18 59 14.8 82 82 NNE 6 9 29.97 1015 10 16.09344 0 0
1:15 am 01:15 Mostly Cloudy 65 18.4 59 15 81 81 Calm 29.97 1015 10 16.09344 0 0
1:35 am 01:35 Mostly Cloudy 65 18.2 59 15.2 83 83 NNE 3 6 29.97 1015 10 16.09344 0 0
1:55 am 01:55 Mostly Cloudy 65 18.5 60 15.4 82 82 Calm 30 1016 10 16.09344 0 0
2:15 am 02:15 Mostly Cloudy 65 18.2 60 15.5 84 84 Calm 30 1016 10 16.09344 0 0
2:35 am 02:35 Mostly Cloudy 65 18.1 60 15.6 85 85 N 3 6 30 1016 10 16.09344 0 0
3:15 am 03:15 Mostly Cloudy 65 18.1 59 15.2 83 83 N 3 6 30 1016 10 16.09344 0 0
3:55 am 03:55 Mostly Cloudy 63 17.2 59 15.1 88 88 NNE 3 6 30 1016 10 16.09344 0 0
4:15 am 04:15 Cloudy 64 17.8 60 15.3 85 85 NNE 3 6 30 1016 10 16.09344 0 0
4:35 am 04:35 Cloudy 64 17.8 60 15.3 85 85 Calm 30.03 1017 10 16.09344 0 0
4:55 am 04:55 Cloudy 64 17.9 60 15.3 85 85 N 3 6 30.03 1017 10 16.09344 0 0
5:15 am 05:15 Cloudy 63 17.3 59 15 86 86 N 6 9 30.03 1017 10 16.09344 0 0
5:35 am 05:35 Cloudy 64 17.5 59 15 85 85 N 5 7 30.03 1017 10 16.09344 0 0
5:55 am 05:55 Cloudy 63 17.3 59 15 86 86 N 3 6 30.03 1017 10 16.09344 0 0
6:15 am 06:15 Cloudy 63 17.3 59 15 86 86 NNE 3 6 30.03 1017 10 16.09344 0 0
6:35 am 06:35 Cloudy 64 17.5 59 15 85 85 NE 5 7 30.03 1017 10 16.09344 0 0
6:55 am 06:55 Cloudy 63 17.1 59 14.9 87 87 N 5 7 30.03 1017 10 16.09344 0 0
7:15 am 07:15 Cloudy 63 17.2 59 15 87 87 Calm 30.06 1018 10 16.09344 0 0
7:35 am 07:35 Cloudy 64 17.9 60 15.4 85 85 Calm 30.06 1018 10 16.09344 0 0
7:55 am 07:55 Mostly Cloudy 65 18.6 59 15 80 80 Calm 30.06 1018 10 16.09344 0 0
8:15 am 08:15 Sunny 66 19.1 59 15.1 78 78 Calm 30.06 1018 10 16.09344 0 0
8:35 am 08:35 Sunny 68 19.8 59 15.1 74 74 E 6 9 30.06 1018 10 16.09344 0 0
8:55 am 08:55 Sunny 67 19.7 59 15.2 75 75 E 6 9 30.06 1018 10 16.09344 0 0
9:15 am 09:15 Sunny 68 20 60 15.5 75 75 ENE 5 7 30.06 1018 10 16.09344 0 0
9:35 am 09:35 Sunny 69 20.5 60 15.6 74 74 NE 5 7 30.06 1018 10 16.09344 0 0
9:55 am 09:55 Sunny 70 21 61 16 73 73 NE 5 7 30.03 1017 10 16.09344 0 0
10:15 am 10:15 Sunny 70 21.3 60 15.6 70 70 NE 6 9 30.03 1017 10 16.09344 0 0
10:35 am 10:35 Sunny 71 21.9 60 15.3 66 66 NE 7 11 30.03 1017 10 16.09344 0 0
10:55 am 10:55 Sunny 73 22.8 58 14.6 60 60 ENE 8 13 30.03 1017 10 16.09344 0 0
11:15 am 11:15 Sunny 73 22.8 57 13.7 57 57 ENE 9 15 30.03 1017 10 16.09344 0 0
11:35 am 11:35 Sunny 73 23 56 13.4 55 55 ENE 8 13 30.03 1017 10 16.09344 0 0
11:55 am 11:55 Sunny 75 23.7 55 13 51 51 NE 10 17 30.03 1017 10 16.09344 0 0
12:15 pm 12:15 Sunny 76 24.6 54 12.2 46 46 NE 9 15 30 1016 10 16.09344 0 0
12:35 pm 12:35 Partly Cloudy 75 23.7 55 12.8 51 51 NE 8 13 30.03 1017 10 16.09344 0 0
12:55 pm 12:55 Sunny 74 23.6 56 13.1 52 52 NE 8 13 30.03 1017 10 16.09344 0 0
1:15 pm 13:15 Partly Cloudy 75 24 56 13.3 51 51 ENE 9 15 30.03 1017 10 16.09344 0 0
1:35 pm 13:35 Partly Cloudy 77 24.9 56 13.5 49 49 N 7 11 30 1016 10 16.09344 0 0
1:55 pm 13:55 Mostly Cloudy 78 25.3 55 12.8 46 46 NNE 9 15 30 1016 10 16.09344 0 0
2:15 pm 14:15 Partly Cloudy 78 25.7 55 12.9 45 45 N 7 11 30 1016 10 16.09344 0 0
2:35 pm 14:35 Partly Cloudy 78 25.8 53 11.7 41 41 N 7 11 30 1016 10 16.09344 0 0
2:55 pm 14:55 Partly Cloudy 79 26.1 54 12.1 42 42 ENE 12 19 30 1016 10 16.09344 0 0
3:15 pm 15:15 Mostly Cloudy 78 25.7 55 12.7 45 45 NNE 9 15 30 1016 10 16.09344 0 0
3:35 pm 15:35 Mostly Cloudy 78 25.7 54 12 43 43 NNE 9 15 30 1016 10 16.09344 0 0
3:55 pm 15:55 Partly Cloudy 78 25.8 54 12.4 43 43 NNE 9 15 30 1016 10 16.09344 0 0
4:15 pm 16:15 Mostly Cloudy 77 25.2 53 11.7 43 43 NNE 14 22 30 1016 10 16.09344 0 0
4:35 pm 16:35 Cloudy 77 25.2 54 12.1 44 44 NE 13 20 29.97 1015 10 16.09344 0 0
4:55 pm 16:55 Cloudy 77 24.8 54 12.4 46 46 N 9 15 29.97 1015 10 16.09344 0 0
5:15 pm 17:15 Cloudy 76 24.7 55 12.8 48 48 NNE 10 17 29.97 1015 10 16.09344 0 0
5:35 pm 17:35 Mostly Cloudy 76 24.4 55 12.9 49 49 N 10 17 29.97 1015 10 16.09344 0 0
5:55 pm 17:55 Partly Cloudy 77 25 56 13.1 48 48 NNE 13 20 29.97 1015 10 16.09344 0 0
6:15 pm 18:15 Partly Cloudy 76 24.2 55 12.9 49 49 NNE 9 15 29.97 1015 10 16.09344 0 0
6:35 pm 18:35 Mostly Cloudy 75 23.7 55 12.5 50 50 NNE 10 17 30 1016 10 16.09344 0 0
6:55 pm 18:55 Cloudy 74 23.4 56 13.2 53 53 NE 7 11 30 1016 10 16.09344 0 0
7:15 pm 19:15 Cloudy 74 23.1 58 14.2 57 57 NE 7 11 30 1016 10 16.09344 0 0
7:35 pm 19:35 Mostly Cloudy 73 22.7 58 14.4 60 60 ENE 6 9 30 1016 10 16.09344 0 0
7:55 pm 19:55 Mostly Cloudy 72 22.2 59 15.1 64 64 NE 6 9 30 1016 10 16.09344 0 0
8:15 pm 20:15 Mostly Cloudy 72 22 58 14.5 63 63 NNE 6 9 30 1016 10 16.09344 0 0
8:35 pm 20:35 Partly Cloudy 70 21 57 14.1 65 65 NNE 5 7 30 1016 10 16.09344 0 0
8:55 pm 20:55 Mostly Cloudy 68 20.1 59 14.9 72 72 NNE 3 6 30.03 1017 10 16.09344 0 0
9:15 pm 21:15 Cloudy 67 19.5 59 15 75 75 N 3 6 30.06 1018 10 16.09344 0 0
9:35 pm 21:35 Mostly Cloudy 67 19.3 60 15.5 79 79 N 5 7 30.06 1018 10 16.09344 0 0
9:55 pm 21:55 Cloudy 67 19.3 60 15.5 79 79 NNE 5 7 30.06 1018 10 16.09344 0 0
10:15 pm 22:15 Cloudy 67 19.5 59 14.8 74 74 NNE 6 9 30.06 1018 10 16.09344 0 0
10:35 pm 22:35 Cloudy 67 19.5 58 14.7 74 74 NE 6 9 30.06 1018 10 16.09344 0 0
10:55 pm 22:55 Cloudy 67 19.3 58 14.5 74 74 NE 6 9 30.06 1018 10 16.09344 0 0
11:15 pm 23:15 Cloudy 67 19.3 57 14.1 72 72 NE 7 11 30.06 1018 10 16.09344 0 0
11:35 pm 23:35 Mostly Cloudy 66 19 57 14 73 73 ENE 5 7 30.06 1018 10 16.09344 0 0
11:55 pm 23:55 Cloudy 66 18.7 58 14.2 75 75 ENE 3 6 30.06 1018 10 16.09344 0 0

Powered by AerisWeather